When you browse on this site, cookies collect data to enhance your experience and personalize the content and advertising you see.
Visit our Privacy Policy to learn more. By continuing to use the site, you agree to this use of cookies and data.
  • In Deutschland
  • Länderverzeichnis
  • Für 7 Tage
  • Wassertemperatur
  • Wetterkarte
  • Widgets
  • user-avatar
    Anmelden

    Stündliche Wetter Leipzig

    Heute, 15 Oktober, Dienstag

    Zeit Temperatur Niederschläge Wind Luftdruck Luftfeuchtigkeit
    00:00 +16°C° 0 mm 2 m/S 748 mmHg 78%
    01:00 +15°C° 0 mm 2 m/S 748 mmHg 79%
    02:00 +15°C° 0 mm 2 m/S 747 mmHg 80%
    03:00 +15°C° 0 mm 2 m/S 747 mmHg 81%
    04:00 +14°C° 0 mm 2 m/S 746 mmHg 82%
    05:00 +14°C° 0 mm 2 m/S 746 mmHg 81%
    06:00 +14°C° 0 mm 2 m/S 746 mmHg 81%
    07:00 +14°C° 0 mm 2 m/S 746 mmHg 81%
    08:00 +16°C° 0 mm 1 m/S 746 mmHg 75%
    09:00 +19°C° 0 mm 1 m/S 745 mmHg 69%
    10:00 +21°C° 0 mm 1 m/S 745 mmHg 63%
    11:00 +22°C° 0 mm 1 m/S 745 mmHg 59%
    12:00 +23°C° 0 mm 1 m/S 745 mmHg 55%
    13:00 +23°C° 0 mm 0 m/S 744 mmHg 51%
    14:00 +24°C° 0 mm 1 m/S 744 mmHg 55%
    15:00 +24°C° 0 mm 1 m/S 743 mmHg 58%
    16:00 +23°C° 0 mm 1 m/S 743 mmHg 61%
    17:00 +21°C° 0 mm 1 m/S 743 mmHg 66%
    18:00 +20°C° 0 mm 1 m/S 743 mmHg 71%
    19:00 +18°C° 0 mm 1 m/S 743 mmHg 76%
    20:00 +17°C° 0 mm 2 m/S 743 mmHg 77%
    21:00 +17°C° 0 mm 2 m/S 743 mmHg 78%
    22:00 +17°C° 0 mm 2 m/S 743 mmHg 79%
    23:00 +15°C° 0 mm 5 m/S 743 mmHg 77%

    Morgen, 16 Oktober, Mittwoch

    Zeit Temperatur Niederschläge Wind Luftdruck Luftfeuchtigkeit
    00:00 +15°C° 0 mm 7 m/S 744 mmHg 74%
    01:00 +15°C° 0 mm 9 m/S 744 mmHg 72%
    02:00 +15°C° 0 mm 9 m/S 745 mmHg 74%
    03:00 +13°C° 0 mm 9 m/S 745 mmHg 75%
    04:00 +13°C° 0 mm 9 m/S 746 mmHg 77%
    05:00 +12°C° 0.2 mm 8 m/S 746 mmHg 76%
    06:00 +11°C° 0.2 mm 7 m/S 747 mmHg 76%
    07:00 +11°C° 0.2 mm 7 m/S 747 mmHg 76%
    08:00 +12°C° 0 mm 7 m/S 747 mmHg 72%
    09:00 +12°C° 0 mm 8 m/S 748 mmHg 68%
    10:00 +13°C° 0 mm 9 m/S 748 mmHg 65%
    11:00 +13°C° 0.1 mm 9 m/S 748 mmHg 62%
    12:00 +15°C° 0.1 mm 8 m/S 748 mmHg 60%
    13:00 +15°C° 0.1 mm 8 m/S 748 mmHg 58%
    14:00 +15°C° 0 mm 8 m/S 748 mmHg 60%
    15:00 +15°C° 0 mm 7 m/S 748 mmHg 62%
    16:00 +14°C° 0 mm 7 m/S 748 mmHg 64%
    17:00 +14°C° 0 mm 6 m/S 748 mmHg 67%
    18:00 +13°C° 0 mm 5 m/S 748 mmHg 71%
    19:00 +12°C° 0 mm 4 m/S 749 mmHg 74%
    20:00 +13°C° 0 mm 4 m/S 749 mmHg 73%
    21:00 +13°C° 0 mm 4 m/S 749 mmHg 73%
    22:00 +13°C° 0 mm 4 m/S 749 mmHg 72%
    23:00 +13°C° 0 mm 4 m/S 750 mmHg 70%

    übermorgen, 17 Oktober, Donnerstag

    Zeit Temperatur Niederschläge Wind Luftdruck Luftfeuchtigkeit
    00:00 +13°C° 0 mm 4 m/S 750 mmHg 69%
    01:00 +13°C° 0 mm 4 m/S 750 mmHg 67%
    02:00 +13°C° 0 mm 4 m/S 750 mmHg 68%
    03:00 +13°C° 0 mm 4 m/S 750 mmHg 68%
    04:00 +12°C° 0 mm 4 m/S 750 mmHg 69%
    05:00 +12°C° 0 mm 4 m/S 750 mmHg 68%
    06:00 +12°C° 0 mm 4 m/S 750 mmHg 67%
    07:00 +12°C° 0 mm 4 m/S 750 mmHg 66%
    08:00 +12°C° 0 mm 4 m/S 750 mmHg 63%
    09:00 +13°C° 0 mm 4 m/S 750 mmHg 61%
    10:00 +14°C° 0 mm 4 m/S 751 mmHg 59%
    11:00 +14°C° 0 mm 4 m/S 751 mmHg 60%
    12:00 +14°C° 0 mm 4 m/S 750 mmHg 62%
    13:00 +14°C° 0 mm 4 m/S 750 mmHg 64%
    14:00 +16°C° 0 mm 3 m/S 750 mmHg 65%
    15:00 +17°C° 0 mm 3 m/S 750 mmHg 66%
    16:00 +18°C° 0 mm 3 m/S 750 mmHg 67%
    17:00 +16°C° 0 mm 3 m/S 751 mmHg 71%
    18:00 +15°C° 0 mm 2 m/S 751 mmHg 75%
    19:00 +14°C° 0 mm 2 m/S 751 mmHg 80%
    20:00 +13°C° 0 mm 2 m/S 751 mmHg 83%
    21:00 +12°C° 0 mm 3 m/S 752 mmHg 86%
    22:00 +11°C° 0 mm 3 m/S 752 mmHg 89%
    23:00 +11°C° 0 mm 3 m/S 752 mmHg 90%

    18 Oktober, Freitag

    Zeit Temperatur Niederschläge Wind Luftdruck Luftfeuchtigkeit
    00:00 +11°C° 0 mm 3 m/S 752 mmHg 90%
    01:00 +12°C° 0 mm 2 m/S 752 mmHg 90%
    02:00 +12°C° 0 mm 2 m/S 752 mmHg 89%
    03:00 +12°C° 0 mm 2 m/S 752 mmHg 88%
    04:00 +12°C° 0 mm 2 m/S 752 mmHg 87%
    05:00 +12°C° 0 mm 2 m/S 752 mmHg 88%
    06:00 +12°C° 0 mm 2 m/S 752 mmHg 89%
    07:00 +10°C° 0 mm 2 m/S 752 mmHg 90%
    08:00 +13°C° 0 mm 2 m/S 752 mmHg 83%
    09:00 +14°C° 0 mm 3 m/S 752 mmHg 76%
    10:00 +17°C° 0 mm 4 m/S 752 mmHg 69%
    11:00 +17°C° 0 mm 4 m/S 751 mmHg 69%
    12:00 +17°C° 0 mm 4 m/S 751 mmHg 69%
    13:00 +15°C° 0 mm 4 m/S 751 mmHg 69%
    14:00 +17°C° 0 mm 3 m/S 751 mmHg 69%
    15:00 +17°C° 0 mm 3 m/S 751 mmHg 69%
    16:00 +17°C° 0 mm 2 m/S 750 mmHg 70%
    17:00 +16°C° 0 mm 2 m/S 750 mmHg 72%
    18:00 +16°C° 0 mm 2 m/S 751 mmHg 75%
    19:00 +14°C° 0 mm 3 m/S 751 mmHg 78%
    20:00 +13°C° 0 mm 3 m/S 751 mmHg 79%
    21:00 +13°C° 0 mm 3 m/S 751 mmHg 81%
    22:00 +13°C° 0 mm 3 m/S 751 mmHg 82%
    23:00 +13°C° 0 mm 2 m/S 751 mmHg 85%

    19 Oktober, Samstag

    Zeit Temperatur Niederschläge Wind Luftdruck Luftfeuchtigkeit
    00:00 +13°C° 0 mm 2 m/S 751 mmHg 88%
    01:00 +12°C° 0 mm 2 m/S 751 mmHg 91%
    02:00 +12°C° 0 mm 1 m/S 751 mmHg 91%
    03:00 +12°C° 0 mm 1 m/S 751 mmHg 91%
    04:00 +12°C° 0 mm 1 m/S 751 mmHg 91%
    05:00 +12°C° 0 mm 1 m/S 751 mmHg 91%
    06:00 +12°C° 0 mm 1 m/S 751 mmHg 91%
    07:00 +12°C° 0 mm 2 m/S 751 mmHg 92%
    08:00 +13°C° 0 mm 2 m/S 751 mmHg 84%
    09:00 +15°C° 0 mm 2 m/S 751 mmHg 77%
    10:00 +17°C° 0 mm 2 m/S 750 mmHg 69%
    11:00 +18°C° 0 mm 2 m/S 750 mmHg 65%
    12:00 +18°C° 0 mm 2 m/S 750 mmHg 61%
    13:00 +19°C° 0 mm 2 m/S 750 mmHg 57%
    14:00 +19°C° 0 mm 2 m/S 749 mmHg 60%
    15:00 +19°C° 0 mm 2 m/S 749 mmHg 63%
    16:00 +18°C° 0 mm 2 m/S 748 mmHg 67%
    17:00 +17°C° 0 mm 2 m/S 748 mmHg 70%
    18:00 +16°C° 0 mm 3 m/S 748 mmHg 74%
    19:00 +14°C° 0 mm 3 m/S 747 mmHg 77%
    20:00 +13°C° 0 mm 3 m/S 747 mmHg 78%
    21:00 +13°C° 0 mm 3 m/S 746 mmHg 79%
    22:00 +13°C° 0 mm 2 m/S 746 mmHg 80%
    23:00 +13°C° 0 mm 2 m/S 746 mmHg 83%

    20 Oktober, Sonntag

    Zeit Temperatur Niederschläge Wind Luftdruck Luftfeuchtigkeit
    00:00 +12°C° 0 mm 2 m/S 745 mmHg 86%
    01:00 +12°C° 0 mm 2 m/S 745 mmHg 88%
    02:00 +12°C° 0 mm 2 m/S 744 mmHg 88%
    03:00 +12°C° 0 mm 2 m/S 744 mmHg 88%
    04:00 +10°C° 0 mm 2 m/S 744 mmHg 88%
    05:00 +12°C° 0 mm 2 m/S 744 mmHg 87%
    06:00 +12°C° 0 mm 2 m/S 744 mmHg 86%
    07:00 +12°C° 0 mm 2 m/S 744 mmHg 85%
    08:00 +12°C° 0 mm 3 m/S 744 mmHg 81%
    09:00 +13°C° 0 mm 4 m/S 744 mmHg 78%
    10:00 +15°C° 0 mm 5 m/S 745 mmHg 75%
    11:00 +14°C° 0.6 mm 5 m/S 745 mmHg 80%
    12:00 +13°C° 0.6 mm 4 m/S 745 mmHg 84%
    13:00 +12°C° 0.6 mm 4 m/S 746 mmHg 89%
    14:00 +13°C° 0.6 mm 3 m/S 746 mmHg 87%
    15:00 +13°C° 0.6 mm 3 m/S 746 mmHg 85%
    16:00 +13°C° 0.6 mm 3 m/S 746 mmHg 83%
    17:00 +12°C° 0 mm 3 m/S 747 mmHg 84%
    18:00 +12°C° 0 mm 3 m/S 747 mmHg 85%
    19:00 +11°C° 0 mm 3 m/S 748 mmHg 85%
    20:00 +11°C° 0 mm 3 m/S 748 mmHg 86%
    21:00 +10°C° 0 mm 3 m/S 749 mmHg 87%
    22:00 +10°C° 0 mm 3 m/S 749 mmHg 87%
    23:00 +10°C° 0 mm 3 m/S 749 mmHg 88%
    Mehr zeigen